DAL2336 SBGR-SKBO

Flight info

Callsign DAL2336
Flight time 5h 13m
Altitude 40000
Route GERTU UL201 UMDUM UM775 ANRIR UL655 PABON UP530 VVC DCT EGEPI EGEPI5E
Aircraft A359/H-SDE2E3GHIJ3J4J5LM1ORWXY/LB1D1

Departure

Time 2026-05-05 15:44
Airport São Paulo/Guarulhos–Governor André Franco Montoro International Airport (SBGR)

Arrival

Time 2026-05-05 20:57
Airport El Dorado International Airport (SKBO)
Time Latitude Longitude Altitude Speed Heading
2026-05-05 15:03 -23.42622 -46.47467 2471 ft 0 kts 73°
2026-05-05 15:32 -23.42626 -46.47480 2474 ft 2 kts 75°
2026-05-05 15:32 -23.42630 -46.47497 2471 ft 2 kts 75°
2026-05-05 15:32 -23.42634 -46.47515 2471 ft 2 kts 77°
2026-05-05 15:32 -23.42637 -46.47532 2473 ft 2 kts 82°
2026-05-05 15:33 -23.42638 -46.47550 2472 ft 2 kts 92°
2026-05-05 15:33 -23.42634 -46.47567 2475 ft 2 kts 137°
2026-05-05 15:33 -23.42625 -46.47573 2472 ft 1 kts 161°
2026-05-05 15:33 -23.42625 -46.47574 2472 ft 0 kts 163°
2026-05-05 15:38 -23.42639 -46.47569 2472 ft 6 kts 163°
2026-05-05 15:38 -23.42707 -46.47547 2473 ft 12 kts 163°
2026-05-05 15:38 -23.42795 -46.47519 2473 ft 14 kts 163°
2026-05-05 15:39 -23.42893 -46.47484 2473 ft 15 kts 170°
2026-05-05 15:39 -23.42957 -46.47544 2473 ft 13 kts 255°
2026-05-05 15:39 -23.42985 -46.47649 2473 ft 15 kts 253°
2026-05-05 15:39 -23.43016 -46.47763 2472 ft 16 kts 253°
2026-05-05 15:40 -23.43048 -46.47881 2472 ft 17 kts 253°
2026-05-05 15:40 -23.43081 -46.48005 2472 ft 17 kts 253°
2026-05-05 15:40 -23.43115 -46.48131 2475 ft 18 kts 253°
2026-05-05 15:40 -23.43151 -46.48261 2474 ft 18 kts 253°
2026-05-05 15:41 -23.43180 -46.48361 2477 ft 6 kts 241°
2026-05-05 15:41 -23.43215 -46.48379 2475 ft 6 kts 184°
2026-05-05 15:41 -23.43256 -46.48374 2479 ft 6 kts 168°
2026-05-05 15:41 -23.43298 -46.48365 2475 ft 6 kts 165°
2026-05-05 15:42 -23.43314 -46.48359 2475 ft 3 kts 164°
2026-05-05 15:42 -23.43365 -46.48344 2475 ft 11 kts 164°
2026-05-05 15:42 -23.43409 -46.48297 2473 ft 8 kts 98°
2026-05-05 15:42 -23.43401 -46.48233 2467 ft 9 kts 73°
2026-05-05 15:43 -23.43393 -46.48205 2473 ft 0 kts 73°
2026-05-05 15:43 -23.43368 -46.48112 2476 ft 42 kts 73°
2026-05-05 15:43 -23.43222 -46.47573 2471 ft 104 kts 73°
2026-05-05 15:44 -23.42967 -46.46636 2476 ft 154 kts 74°
2026-05-05 15:44 -23.42649 -46.45449 2937 ft 158 kts 73°
2026-05-05 15:44 -23.42342 -46.44284 3446 ft 168 kts 74°
2026-05-05 15:44 -23.42005 -46.43008 3762 ft 182 kts 72°
2026-05-05 15:45 -23.41586 -46.41634 3989 ft 199 kts 71°
2026-05-05 15:45 -23.41125 -46.40144 4231 ft 217 kts 71°
2026-05-05 15:45 -23.40635 -46.38507 4462 ft 237 kts 72°
2026-05-05 15:45 -23.40098 -46.36737 4729 ft 255 kts 69°
2026-05-05 15:46 -23.39267 -46.34978 5148 ft 266 kts 58°
2026-05-05 15:46 -23.38273 -46.33259 5713 ft 270 kts 57°
2026-05-05 15:46 -23.37253 -46.31521 6331 ft 274 kts 57°
2026-05-05 15:46 -23.36223 -46.29758 6940 ft 277 kts 57°
2026-05-05 15:47 -23.35186 -46.27977 7541 ft 280 kts 57°
2026-05-05 15:47 -23.34493 -46.26785 7949 ft 282 kts 57°
2026-05-05 15:47 -23.33099 -46.24383 8761 ft 285 kts 57°
2026-05-05 15:47 -23.32035 -46.22546 9359 ft 288 kts 57°
2026-05-05 15:48 -23.30960 -46.20692 9982 ft 290 kts 57°
2026-05-05 15:48 -23.29879 -46.18823 10594 ft 292 kts 58°
2026-05-05 15:48 -23.28804 -46.16948 11184 ft 293 kts 58°
2026-05-05 15:48 -23.27726 -46.15055 11800 ft 294 kts 58°
2026-05-05 15:49 -23.26654 -46.13151 12392 ft 295 kts 58°
2026-05-05 15:49 -23.25537 -46.11272 12990 ft 296 kts 53°
2026-05-05 15:49 -23.24127 -46.09614 13398 ft 304 kts 39°
2026-05-05 15:49 -23.22313 -46.08395 13770 ft 311 kts 21°
2026-05-05 15:50 -23.20174 -46.07932 14100 ft 319 kts 359°
2026-05-05 15:50 -23.17991 -46.08434 14438 ft 327 kts 335°
2026-05-05 15:50 -23.16145 -46.09882 14808 ft 333 kts 311°
2026-05-05 15:50 -23.14928 -46.11994 15205 ft 337 kts 292°
2026-05-05 15:51 -23.14067 -46.14383 15643 ft 342 kts 290°
2026-05-05 15:51 -23.13174 -46.16802 15965 ft 350 kts 295°
2026-05-05 15:51 -23.12055 -46.19200 16173 ft 361 kts 297°
2026-05-05 15:51 -23.10859 -46.21635 16395 ft 371 kts 298°
2026-05-05 15:52 -23.09619 -46.24136 16570 ft 380 kts 298°
2026-05-05 15:52 -23.08781 -46.25822 16752 ft 384 kts 298°
2026-05-05 15:52 -23.07505 -46.28388 17110 ft 388 kts 298°
2026-05-05 15:52 -23.06218 -46.30971 17484 ft 391 kts 298°
2026-05-05 15:53 -23.04920 -46.33576 17888 ft 393 kts 298°
2026-05-05 15:53 -23.03614 -46.36196 18267 ft 395 kts 298°
2026-05-05 15:53 -23.02301 -46.38828 18644 ft 398 kts 298°
2026-05-05 15:53 -23.00978 -46.41478 19011 ft 400 kts 298°
2026-05-05 15:54 -22.99643 -46.44149 19370 ft 402 kts 298°
2026-05-05 15:54 -22.98306 -46.46826 19726 ft 404 kts 298°
2026-05-05 15:54 -22.96961 -46.49514 20075 ft 406 kts 298°
2026-05-05 15:54 -22.95609 -46.52218 20419 ft 409 kts 298°
2026-05-05 15:55 -22.94250 -46.54933 20754 ft 411 kts 298°
2026-05-05 15:55 -22.92899 -46.57630 21068 ft 413 kts 298°
2026-05-05 15:55 -22.91508 -46.60407 21396 ft 415 kts 298°
2026-05-05 15:55 -22.90146 -46.63123 21716 ft 417 kts 298°
2026-05-05 15:56 -22.88755 -46.65895 22022 ft 419 kts 298°
2026-05-05 15:56 -22.87360 -46.68675 22321 ft 420 kts 298°
2026-05-05 15:56 -22.85960 -46.71462 22613 ft 422 kts 298°
2026-05-05 15:56 -22.84553 -46.74264 22889 ft 424 kts 298°
2026-05-05 15:57 -22.83138 -46.77078 23187 ft 426 kts 298°
2026-05-05 15:57 -22.81716 -46.79905 23457 ft 428 kts 298°
2026-05-05 15:57 -22.80288 -46.82742 23721 ft 430 kts 298°
2026-05-05 15:57 -22.78851 -46.85595 23941 ft 432 kts 298°
2026-05-05 15:58 -22.77410 -46.88455 24235 ft 433 kts 298°
2026-05-05 15:58 -22.75962 -46.91326 24511 ft 434 kts 298°
2026-05-05 15:58 -22.74509 -46.94206 24781 ft 436 kts 298°
2026-05-05 15:58 -22.73054 -46.97089 25031 ft 437 kts 298°
2026-05-05 15:59 -22.71591 -46.99985 25268 ft 439 kts 298°
2026-05-05 15:59 -22.70124 -47.02889 25525 ft 441 kts 298°
2026-05-05 15:59 -22.68647 -47.05810 25783 ft 442 kts 298°
2026-05-05 15:59 -22.67168 -47.08733 26030 ft 444 kts 298°
2026-05-05 16:00 -22.65681 -47.11671 26280 ft 445 kts 298°
2026-05-05 16:00 -22.64192 -47.14611 26526 ft 447 kts 298°
2026-05-05 16:00 -22.62691 -47.17573 26781 ft 449 kts 298°
2026-05-05 16:00 -22.61185 -47.20544 27037 ft 451 kts 298°
2026-05-05 16:01 -22.59672 -47.23526 27299 ft 452 kts 298°
2026-05-05 16:01 -22.58172 -47.26480 27557 ft 454 kts 298°
2026-05-05 16:01 -22.56646 -47.29484 27825 ft 456 kts 298°
2026-05-05 16:01 -22.55116 -47.32495 28092 ft 458 kts 298°
2026-05-05 16:02 -22.53577 -47.35520 28361 ft 460 kts 298°
2026-05-05 16:02 -22.52031 -47.38559 28622 ft 462 kts 298°
2026-05-05 16:02 -22.50478 -47.41609 28876 ft 464 kts 298°
2026-05-05 16:02 -22.48918 -47.44671 29133 ft 466 kts 298°
2026-05-05 16:03 -22.47350 -47.47747 29395 ft 468 kts 298°
2026-05-05 16:03 -22.45775 -47.50835 29659 ft 469 kts 298°
2026-05-05 16:03 -22.44178 -47.53932 29928 ft 471 kts 300°
2026-05-05 16:03 -22.42329 -47.56859 30186 ft 473 kts 309°
2026-05-05 16:04 -22.40157 -47.59537 30455 ft 475 kts 312°
2026-05-05 16:04 -22.37881 -47.62145 30726 ft 477 kts 314°
2026-05-05 16:04 -22.35589 -47.64686 30984 ft 479 kts 314°
2026-05-05 16:04 -22.33243 -47.67257 31236 ft 481 kts 314°
2026-05-05 16:05 -22.30888 -47.69838 31490 ft 483 kts 314°
2026-05-05 16:05 -22.28529 -47.72434 31737 ft 485 kts 314°
2026-05-05 16:05 -22.26168 -47.75046 31957 ft 487 kts 314°
2026-05-05 16:05 -22.23799 -47.77676 32159 ft 489 kts 314°
2026-05-05 16:06 -22.21430 -47.80311 32336 ft 491 kts 314°
2026-05-05 16:06 -22.19045 -47.82965 32551 ft 492 kts 314°
2026-05-05 16:06 -22.16654 -47.85626 32756 ft 494 kts 314°
2026-05-05 16:06 -22.14289 -47.88255 32956 ft 495 kts 314°
2026-05-05 16:07 -22.11882 -47.90930 33167 ft 497 kts 314°
2026-05-05 16:07 -22.09472 -47.93607 33363 ft 498 kts 314°
2026-05-05 16:07 -22.07061 -47.96282 33652 ft 497 kts 314°
2026-05-05 16:07 -22.04650 -47.98957 33956 ft 496 kts 314°
2026-05-05 16:08 -22.02248 -48.01620 34246 ft 495 kts 314°
2026-05-05 16:08 -21.99852 -48.04274 34532 ft 494 kts 314°
2026-05-05 16:08 -21.97456 -48.06927 34796 ft 494 kts 314°
2026-05-05 16:08 -21.95060 -48.09578 35060 ft 493 kts 314°
2026-05-05 16:09 -21.92667 -48.12226 35328 ft 493 kts 314°
2026-05-05 16:09 -21.90278 -48.14867 35602 ft 492 kts 314°
2026-05-05 16:09 -21.87891 -48.17505 35885 ft 491 kts 314°
2026-05-05 16:09 -21.85511 -48.20135 36169 ft 490 kts 314°
2026-05-05 16:10 -21.83129 -48.22765 36434 ft 490 kts 314°
2026-05-05 16:10 -21.80750 -48.25389 36664 ft 490 kts 314°
2026-05-05 16:10 -21.78370 -48.28013 36879 ft 490 kts 314°
2026-05-05 16:10 -21.75983 -48.30642 37107 ft 490 kts 314°
2026-05-05 16:11 -21.73635 -48.33229 37311 ft 490 kts 314°
2026-05-05 16:11 -21.66479 -48.41102 37939 ft 490 kts 314°
2026-05-05 16:12 -21.64095 -48.43723 38152 ft 490 kts 314°
2026-05-05 16:12 -21.59327 -48.48961 38521 ft 490 kts 314°
2026-05-05 16:13 -21.52167 -48.56816 39046 ft 490 kts 314°
2026-05-05 16:13 -21.49785 -48.59427 39217 ft 490 kts 314°
2026-05-05 16:13 -21.47427 -48.62009 39362 ft 490 kts 314°
2026-05-05 16:14 -21.42649 -48.67240 39656 ft 490 kts 314°
2026-05-05 16:14 -21.37874 -48.72461 39936 ft 490 kts 314°
2026-05-05 16:15 -21.28303 -48.82912 39999 ft 490 kts 314°
2026-05-05 16:16 -21.18771 -48.93304 40001 ft 490 kts 314°
2026-05-05 16:17 -21.11596 -49.01128 40001 ft 490 kts 314°
2026-05-05 16:18 -21.04418 -49.08943 40001 ft 490 kts 314°
2026-05-05 16:19 -20.97239 -49.16748 40000 ft 490 kts 314°
2026-05-05 16:19 -20.90057 -49.24546 40001 ft 490 kts 314°
2026-05-05 16:20 -20.80470 -49.34936 40001 ft 490 kts 314°
2026-05-05 16:22 -20.68507 -49.47873 40000 ft 490 kts 314°
2026-05-05 16:23 -20.58910 -49.58229 39998 ft 490 kts 314°
2026-05-05 16:23 -20.51740 -49.65954 40002 ft 490 kts 314°
2026-05-05 16:24 -20.46936 -49.71123 40001 ft 490 kts 314°
2026-05-05 16:25 -20.39732 -49.78866 40000 ft 490 kts 314°
2026-05-05 16:25 -20.32525 -49.86602 40001 ft 490 kts 314°
2026-05-05 16:26 -20.22935 -49.96877 40001 ft 490 kts 315°
2026-05-05 16:27 -20.18123 -50.02026 40002 ft 490 kts 315°
2026-05-05 16:27 -20.13319 -50.07161 39998 ft 489 kts 315°
2026-05-05 16:28 -20.08510 -50.12298 40001 ft 490 kts 315°
2026-05-05 16:28 -20.03700 -50.17431 40000 ft 490 kts 315°
2026-05-05 16:29 -19.98885 -50.22565 40000 ft 490 kts 315°
2026-05-05 16:29 -19.94107 -50.27660 39998 ft 490 kts 315°
2026-05-05 16:30 -19.89295 -50.32775 39999 ft 490 kts 315°
2026-05-05 16:30 -19.84478 -50.37891 39998 ft 489 kts 315°
2026-05-05 16:31 -19.79663 -50.43004 40001 ft 489 kts 315°
2026-05-05 16:31 -19.74845 -50.48116 40001 ft 489 kts 315°
2026-05-05 16:32 -19.70033 -50.53217 40002 ft 489 kts 315°
2026-05-05 16:32 -19.65206 -50.58329 40000 ft 490 kts 315°
2026-05-05 16:33 -19.60227 -50.63278 40002 ft 490 kts 317°
2026-05-05 16:33 -19.55158 -50.68101 40001 ft 489 kts 318°
2026-05-05 16:34 -19.50101 -50.72944 40000 ft 489 kts 317°
2026-05-05 16:34 -19.45097 -50.77779 39996 ft 489 kts 317°
2026-05-05 16:35 -19.40073 -50.82647 40002 ft 489 kts 317°
2026-05-05 16:35 -19.35044 -50.87518 40000 ft 489 kts 317°
2026-05-05 16:36 -19.30018 -50.92378 40001 ft 489 kts 317°
2026-05-05 16:36 -19.24978 -50.97247 40002 ft 489 kts 317°
2026-05-05 16:37 -19.19983 -51.02068 40001 ft 489 kts 317°
2026-05-05 16:37 -19.14946 -51.06926 40000 ft 489 kts 317°
2026-05-05 16:38 -19.09915 -51.11775 39999 ft 489 kts 317°
2026-05-05 16:38 -19.04882 -51.16627 39999 ft 489 kts 317°
2026-05-05 16:39 -18.99844 -51.21477 40001 ft 490 kts 317°
2026-05-05 16:39 -18.94804 -51.26325 40000 ft 490 kts 317°
2026-05-05 16:40 -18.90611 -51.30356 40001 ft 490 kts 317°
2026-05-05 16:40 -18.85565 -51.35203 39998 ft 490 kts 317°
2026-05-05 16:41 -18.80518 -51.40048 40001 ft 490 kts 317°
2026-05-05 16:41 -18.75468 -51.44890 40001 ft 491 kts 317°
2026-05-05 16:42 -18.70419 -51.49729 39999 ft 490 kts 317°
2026-05-05 16:42 -18.65391 -51.54542 40001 ft 491 kts 317°
2026-05-05 16:43 -18.60335 -51.59379 39999 ft 491 kts 317°
2026-05-05 16:43 -18.55276 -51.64214 40002 ft 490 kts 317°
2026-05-05 16:44 -18.50214 -51.69048 40001 ft 491 kts 317°
2026-05-05 16:44 -18.45152 -51.73879 40002 ft 490 kts 317°
2026-05-05 16:45 -18.40119 -51.78681 39997 ft 491 kts 317°
2026-05-05 16:45 -18.35038 -51.83510 40001 ft 491 kts 317°
2026-05-05 16:46 -18.29954 -51.88339 39996 ft 492 kts 317°
2026-05-05 16:46 -18.24902 -51.93136 40001 ft 492 kts 317°
2026-05-05 16:47 -18.19815 -51.97965 40000 ft 493 kts 317°
2026-05-05 16:47 -18.14721 -52.02796 40002 ft 493 kts 317°
2026-05-05 16:48 -18.09628 -52.07623 40000 ft 492 kts 317°
2026-05-05 16:48 -18.04569 -52.12413 39999 ft 492 kts 317°
2026-05-05 16:49 -17.99698 -52.17466 39999 ft 492 kts 308°
2026-05-05 16:49 -17.95816 -52.23374 40001 ft 491 kts 302°
2026-05-05 16:50 -17.92174 -52.29468 40000 ft 491 kts 301°
2026-05-05 16:50 -17.88581 -52.35565 40002 ft 491 kts 302°
2026-05-05 16:51 -17.84972 -52.41645 39998 ft 491 kts 302°
2026-05-05 16:51 -17.81346 -52.47718 40002 ft 491 kts 302°
2026-05-05 16:52 -17.77707 -52.53796 39998 ft 491 kts 302°
2026-05-05 16:52 -17.74096 -52.59822 40000 ft 491 kts 302°
2026-05-05 16:53 -17.70457 -52.65893 39997 ft 491 kts 302°
2026-05-05 16:53 -17.66809 -52.71973 40001 ft 492 kts 302°
2026-05-05 16:54 -17.63159 -52.78050 40000 ft 492 kts 302°
2026-05-05 16:54 -17.59507 -52.84126 40000 ft 492 kts 302°
2026-05-05 16:55 -17.55852 -52.90200 40000 ft 492 kts 302°
2026-05-05 16:55 -17.52217 -52.96235 40000 ft 492 kts 302°
2026-05-05 16:56 -17.48564 -53.02296 39999 ft 491 kts 302°
2026-05-05 16:56 -17.44907 -53.08357 39998 ft 491 kts 302°
2026-05-05 16:57 -17.41273 -53.14376 40000 ft 491 kts 302°
2026-05-05 16:57 -17.37615 -53.20429 40000 ft 491 kts 302°
2026-05-05 16:58 -17.33957 -53.26476 40002 ft 491 kts 302°
2026-05-05 16:58 -17.30299 -53.32516 40001 ft 491 kts 302°
2026-05-05 16:59 -17.26639 -53.38556 39999 ft 491 kts 302°
2026-05-05 16:59 -17.22976 -53.44596 40002 ft 492 kts 302°
2026-05-05 17:00 -17.19309 -53.50635 40001 ft 492 kts 302°
2026-05-05 17:00 -17.15644 -53.56666 40000 ft 491 kts 302°
2026-05-05 17:01 -17.11976 -53.62699 39999 ft 491 kts 302°
2026-05-05 17:01 -17.08328 -53.68742 39998 ft 491 kts 300°
2026-05-05 17:02 -17.05030 -53.74988 40000 ft 491 kts 297°
2026-05-05 17:02 -17.01850 -53.81299 40001 ft 491 kts 298°
2026-05-05 17:03 -16.98639 -53.87555 40000 ft 491 kts 298°
2026-05-05 17:03 -16.95367 -53.93822 39997 ft 491 kts 298°
2026-05-05 17:04 -16.92074 -54.00095 40000 ft 491 kts 298°
2026-05-05 17:04 -16.88786 -54.06350 40000 ft 491 kts 298°
2026-05-05 17:05 -16.85517 -54.12572 39997 ft 491 kts 298°
2026-05-05 17:05 -16.82230 -54.18821 40001 ft 490 kts 298°
2026-05-05 17:06 -16.78952 -54.25050 40002 ft 489 kts 298°
2026-05-05 17:06 -16.75673 -54.31274 40001 ft 489 kts 298°
2026-05-05 17:07 -16.72396 -54.37489 40001 ft 488 kts 298°
2026-05-05 17:07 -16.69137 -54.43663 40000 ft 488 kts 298°
2026-05-05 17:08 -16.65857 -54.49872 39999 ft 488 kts 298°
2026-05-05 17:08 -16.62578 -54.56074 40001 ft 488 kts 298°
2026-05-05 17:09 -16.59292 -54.62283 40000 ft 488 kts 298°
2026-05-05 17:09 -16.55870 -54.68420 39999 ft 489 kts 302°
2026-05-05 17:10 -16.52102 -54.74315 39999 ft 489 kts 304°
2026-05-05 17:10 -16.48326 -54.80162 40002 ft 489 kts 303°
2026-05-05 17:11 -16.44584 -54.86071 40000 ft 488 kts 303°
2026-05-05 17:11 -16.40878 -54.91987 39996 ft 488 kts 303°
2026-05-05 17:12 -16.37168 -54.97915 40002 ft 488 kts 303°
2026-05-05 17:12 -16.33456 -55.03840 40001 ft 489 kts 303°
2026-05-05 17:13 -16.29732 -55.09774 40000 ft 489 kts 303°
2026-05-05 17:13 -16.26024 -55.15677 40002 ft 490 kts 303°
2026-05-05 17:14 -16.22293 -55.21611 39997 ft 490 kts 303°
2026-05-05 17:14 -16.18550 -55.27561 40000 ft 491 kts 303°
2026-05-05 17:15 -16.14804 -55.33508 40000 ft 491 kts 303°
2026-05-05 17:15 -16.11061 -55.39448 40002 ft 491 kts 303°
2026-05-05 17:16 -16.07326 -55.45370 39997 ft 488 kts 303°
2026-05-05 17:16 -16.03598 -55.51276 40000 ft 488 kts 303°
2026-05-05 17:17 -15.99872 -55.57175 40001 ft 489 kts 303°
2026-05-05 17:17 -15.96142 -55.63073 40000 ft 488 kts 303°
2026-05-05 17:18 -15.92432 -55.68937 39997 ft 488 kts 303°
2026-05-05 17:18 -15.88702 -55.74826 40000 ft 488 kts 303°
2026-05-05 17:19 -15.84973 -55.80710 40000 ft 488 kts 303°
2026-05-05 17:19 -15.81239 -55.86597 40002 ft 487 kts 303°
2026-05-05 17:20 -15.77509 -55.92472 40001 ft 487 kts 303°
2026-05-05 17:20 -15.73796 -55.98318 39998 ft 487 kts 303°
2026-05-05 17:21 -15.70062 -56.04190 40001 ft 487 kts 303°
2026-05-05 17:22 -15.64748 -56.13183 40001 ft 487 kts 296°
2026-05-05 17:22 -15.61778 -56.19508 40001 ft 487 kts 295°
2026-05-05 17:23 -15.58889 -56.25870 39997 ft 487 kts 295°
2026-05-05 17:23 -15.56002 -56.32239 39998 ft 487 kts 295°
2026-05-05 17:24 -15.53104 -56.38597 40000 ft 488 kts 295°
2026-05-05 17:24 -15.50198 -56.44950 40000 ft 488 kts 295°
2026-05-05 17:25 -15.47286 -56.51307 40002 ft 488 kts 295°
2026-05-05 17:25 -15.44393 -56.57620 40001 ft 488 kts 295°
2026-05-05 17:26 -15.41477 -56.63976 40002 ft 488 kts 295°
2026-05-05 17:26 -15.38560 -56.70331 40001 ft 488 kts 295°
2026-05-05 17:27 -15.35639 -56.76688 40000 ft 489 kts 295°
2026-05-05 17:27 -15.33187 -56.82020 39999 ft 489 kts 295°
2026-05-05 17:28 -15.30276 -56.88344 39999 ft 489 kts 295°
2026-05-05 17:28 -15.27346 -56.94704 40000 ft 489 kts 295°
2026-05-05 17:29 -15.24420 -57.01051 40000 ft 488 kts 295°
2026-05-05 17:29 -15.21494 -57.07391 39997 ft 488 kts 295°
2026-05-05 17:30 -15.18916 -57.12972 40001 ft 487 kts 295°
2026-05-05 17:30 -15.15989 -57.19304 39999 ft 487 kts 295°
2026-05-05 17:31 -15.13061 -57.25633 40001 ft 487 kts 295°
2026-05-05 17:31 -15.10129 -57.31963 39999 ft 487 kts 295°
2026-05-05 17:32 -15.07219 -57.38244 39999 ft 487 kts 295°
2026-05-05 17:32 -15.04285 -57.44568 39999 ft 487 kts 295°
2026-05-05 17:33 -15.01346 -57.50899 40002 ft 488 kts 295°
2026-05-05 17:33 -14.97848 -57.56889 40001 ft 487 kts 309°
2026-05-05 17:34 -14.93398 -57.62181 39999 ft 488 kts 312°
2026-05-05 17:34 -14.88778 -57.67342 40001 ft 488 kts 313°
2026-05-05 17:35 -14.84137 -57.72489 39998 ft 488 kts 313°
2026-05-05 17:35 -14.79552 -57.77602 39998 ft 488 kts 313°
2026-05-05 17:36 -14.74946 -57.82755 40001 ft 488 kts 312°
2026-05-05 17:36 -14.70345 -57.87906 39999 ft 488 kts 312°
2026-05-05 17:37 -14.65729 -57.93068 40001 ft 488 kts 313°
2026-05-05 17:37 -14.61117 -57.98221 40000 ft 489 kts 313°
2026-05-05 17:38 -14.56525 -58.03348 40000 ft 489 kts 313°
2026-05-05 17:38 -14.51905 -58.08502 40000 ft 490 kts 313°
2026-05-05 17:39 -14.47272 -58.13669 39999 ft 490 kts 313°
2026-05-05 17:39 -14.42636 -58.18835 40001 ft 490 kts 313°
2026-05-05 17:40 -14.37992 -58.24007 40002 ft 491 kts 313°
2026-05-05 17:40 -14.33375 -58.29144 40001 ft 491 kts 313°
2026-05-05 17:41 -14.28726 -58.34309 40000 ft 491 kts 313°
2026-05-05 17:41 -14.24072 -58.39477 40000 ft 491 kts 313°
2026-05-05 17:42 -14.19417 -58.44644 40002 ft 491 kts 313°
2026-05-05 17:42 -14.14767 -58.49802 39996 ft 491 kts 313°
2026-05-05 17:43 -14.10116 -58.54959 39999 ft 491 kts 313°
2026-05-05 17:43 -14.05468 -58.60108 39998 ft 491 kts 313°
2026-05-05 17:44 -14.00844 -58.65228 40000 ft 491 kts 313°
2026-05-05 17:44 -13.96200 -58.70373 39999 ft 491 kts 313°
2026-05-05 17:45 -13.91547 -58.75520 39999 ft 491 kts 313°
2026-05-05 17:45 -13.86890 -58.80665 40001 ft 491 kts 313°
2026-05-05 17:46 -13.82228 -58.85814 40000 ft 491 kts 313°
2026-05-05 17:46 -13.77571 -58.90957 40000 ft 491 kts 313°
2026-05-05 17:47 -13.72914 -58.96103 40002 ft 491 kts 313°
2026-05-05 17:47 -13.68286 -59.01199 39999 ft 490 kts 313°
2026-05-05 17:48 -13.63627 -59.06327 39998 ft 490 kts 313°
2026-05-05 17:48 -13.58971 -59.11452 40000 ft 490 kts 313°
2026-05-05 17:49 -13.54312 -59.16578 40000 ft 491 kts 313°
2026-05-05 17:49 -13.49653 -59.21702 40000 ft 490 kts 313°
2026-05-05 17:50 -13.44990 -59.26827 39997 ft 490 kts 313°
2026-05-05 17:50 -13.40323 -59.31952 40002 ft 491 kts 313°
2026-05-05 17:51 -13.35657 -59.37073 39997 ft 490 kts 313°
2026-05-05 17:51 -13.31025 -59.42154 40001 ft 490 kts 313°
2026-05-05 17:52 -13.26368 -59.47259 39998 ft 489 kts 313°
2026-05-05 17:52 -13.21707 -59.52366 40000 ft 490 kts 313°
2026-05-05 17:53 -13.17047 -59.57468 40001 ft 490 kts 313°
2026-05-05 17:53 -13.12393 -59.62560 40000 ft 490 kts 313°
2026-05-05 17:54 -13.07719 -59.67672 39998 ft 490 kts 313°
2026-05-05 17:54 -13.03053 -59.72772 40002 ft 490 kts 313°
2026-05-05 17:55 -12.98393 -59.77863 40001 ft 490 kts 313°
2026-05-05 17:55 -12.93714 -59.82970 40000 ft 490 kts 313°
2026-05-05 17:56 -12.89034 -59.88077 40001 ft 490 kts 313°
2026-05-05 17:56 -12.84393 -59.93137 40002 ft 490 kts 313°
2026-05-05 17:57 -12.79718 -59.98233 39998 ft 490 kts 313°
2026-05-05 17:57 -12.75038 -60.03330 39997 ft 490 kts 313°
2026-05-05 17:58 -12.70361 -60.08421 40000 ft 491 kts 313°
2026-05-05 17:58 -12.65639 -60.13435 40000 ft 491 kts 315°
2026-05-05 17:59 -12.60762 -60.18335 40001 ft 491 kts 315°
2026-05-05 17:59 -12.55864 -60.23242 40001 ft 490 kts 315°
2026-05-05 18:00 -12.51021 -60.28133 40000 ft 490 kts 315°
2026-05-05 18:00 -12.46181 -60.33041 40000 ft 490 kts 315°
2026-05-05 18:01 -12.41354 -60.37938 40001 ft 489 kts 315°
2026-05-05 18:01 -12.36516 -60.42842 40002 ft 489 kts 315°
2026-05-05 18:02 -12.31701 -60.47718 39999 ft 489 kts 315°
2026-05-05 18:02 -12.26854 -60.52627 40001 ft 489 kts 315°
2026-05-05 18:03 -12.22007 -60.57527 39998 ft 489 kts 315°
2026-05-05 18:03 -12.17171 -60.62412 40000 ft 489 kts 315°
2026-05-05 18:04 -12.12335 -60.67295 39998 ft 489 kts 315°
2026-05-05 18:04 -12.07525 -60.72151 40000 ft 489 kts 315°
2026-05-05 18:05 -12.02661 -60.77059 40000 ft 489 kts 315°
2026-05-05 18:05 -11.97833 -60.81927 39996 ft 489 kts 315°
2026-05-05 18:06 -11.92986 -60.86813 40000 ft 489 kts 315°
2026-05-05 18:06 -11.88162 -60.91673 40000 ft 488 kts 315°
2026-05-05 18:07 -11.83332 -60.96536 39997 ft 488 kts 315°
2026-05-05 18:07 -11.78491 -61.01407 39998 ft 488 kts 315°
2026-05-05 18:08 -11.73686 -61.06240 40000 ft 488 kts 315°
2026-05-05 18:08 -11.68822 -61.11129 40001 ft 488 kts 315°
2026-05-05 18:09 -11.64017 -61.15957 40001 ft 488 kts 315°
2026-05-05 18:09 -11.59156 -61.20839 40001 ft 488 kts 315°
2026-05-05 18:10 -11.54329 -61.25683 40000 ft 488 kts 315°
2026-05-05 18:10 -11.49497 -61.30531 40000 ft 488 kts 315°
2026-05-05 18:11 -11.44652 -61.35390 39998 ft 488 kts 315°
2026-05-05 18:11 -11.39801 -61.40250 40000 ft 488 kts 315°
2026-05-05 18:12 -11.34978 -61.45086 40000 ft 488 kts 315°
2026-05-05 18:12 -11.30268 -61.50049 40000 ft 488 kts 313°
2026-05-05 18:13 -11.25618 -61.55086 40002 ft 488 kts 313°
2026-05-05 18:13 -11.20945 -61.60119 39999 ft 489 kts 313°
2026-05-05 18:14 -11.17030 -61.64306 40001 ft 489 kts 313°
2026-05-05 18:14 -11.12343 -61.69304 40001 ft 489 kts 313°
2026-05-05 18:15 -11.07636 -61.74319 40001 ft 488 kts 313°
2026-05-05 18:15 -11.02941 -61.79320 40000 ft 488 kts 313°
2026-05-05 18:16 -10.98266 -61.84298 39999 ft 488 kts 313°
2026-05-05 18:16 -10.93597 -61.89268 40000 ft 488 kts 313°
2026-05-05 18:17 -10.88876 -61.94291 40000 ft 488 kts 313°
2026-05-05 18:17 -10.84074 -61.99146 40001 ft 488 kts 316°
2026-05-05 18:18 -10.79103 -62.03814 40001 ft 488 kts 317°
2026-05-05 18:18 -10.74114 -62.08505 40001 ft 488 kts 317°
2026-05-05 18:19 -10.69168 -62.13214 40001 ft 488 kts 316°
2026-05-05 18:19 -10.64236 -62.17935 40001 ft 488 kts 316°
2026-05-05 18:20 -10.59291 -62.22672 39999 ft 488 kts 316°
2026-05-05 18:20 -10.54358 -62.27392 40001 ft 488 kts 316°
2026-05-05 18:21 -10.49388 -62.32143 40000 ft 488 kts 316°
2026-05-05 18:21 -10.44467 -62.36845 40001 ft 488 kts 316°
2026-05-05 18:22 -10.39507 -62.41582 39999 ft 488 kts 316°
2026-05-05 18:22 -10.34583 -62.46283 40000 ft 488 kts 316°
2026-05-05 18:23 -10.29626 -62.51014 39999 ft 488 kts 316°
2026-05-05 18:23 -10.24696 -62.55716 40000 ft 488 kts 316°
2026-05-05 18:24 -10.19750 -62.60436 40002 ft 488 kts 316°
2026-05-05 18:24 -10.14800 -62.65146 40000 ft 488 kts 316°
2026-05-05 18:25 -10.09850 -62.69848 40001 ft 488 kts 316°
2026-05-05 18:25 -10.04905 -62.74547 40001 ft 488 kts 316°
2026-05-05 18:26 -9.99956 -62.79250 40000 ft 488 kts 316°
2026-05-05 18:26 -9.95009 -62.83950 40000 ft 488 kts 316°
2026-05-05 18:27 -9.90049 -62.88659 39999 ft 488 kts 316°
2026-05-05 18:27 -9.85095 -62.93362 40000 ft 488 kts 316°
2026-05-05 18:28 -9.77653 -63.00421 39998 ft 487 kts 316°
2026-05-05 18:28 -9.72736 -63.05083 40000 ft 488 kts 316°
2026-05-05 18:29 -9.67768 -63.09791 40002 ft 487 kts 316°
2026-05-05 18:29 -9.62801 -63.14496 40000 ft 487 kts 316°
2026-05-05 18:30 -9.57855 -63.19180 39999 ft 487 kts 316°
2026-05-05 18:30 -9.52918 -63.23853 40000 ft 487 kts 316°
2026-05-05 18:31 -9.47962 -63.28541 40002 ft 487 kts 317°
2026-05-05 18:31 -9.42993 -63.33241 40000 ft 487 kts 317°
2026-05-05 18:32 -9.38079 -63.37932 40001 ft 487 kts 315°
2026-05-05 18:32 -9.33284 -63.42810 40001 ft 487 kts 314°
2026-05-05 18:33 -9.28525 -63.47718 40001 ft 487 kts 314°
2026-05-05 18:33 -9.23784 -63.52566 40000 ft 487 kts 314°
2026-05-05 18:34 -9.18983 -63.57442 39999 ft 487 kts 315°
2026-05-05 18:34 -9.14216 -63.62274 40001 ft 487 kts 315°
2026-05-05 18:35 -9.09426 -63.67128 40000 ft 487 kts 315°
2026-05-05 18:35 -9.04647 -63.71971 40001 ft 487 kts 315°
2026-05-05 18:36 -8.99831 -63.76850 39999 ft 487 kts 315°
2026-05-05 18:36 -8.95065 -63.81676 39999 ft 487 kts 315°
2026-05-05 18:37 -8.90256 -63.86543 40000 ft 487 kts 315°
2026-05-05 18:37 -8.85471 -63.91385 40001 ft 487 kts 315°
2026-05-05 18:38 -8.80696 -63.96215 40001 ft 487 kts 315°
2026-05-05 18:38 -8.75891 -64.01073 40001 ft 487 kts 315°
2026-05-05 18:39 -8.71130 -64.05886 40000 ft 487 kts 315°
2026-05-05 18:39 -8.66341 -64.10724 39997 ft 487 kts 315°
2026-05-05 18:40 -8.61539 -64.15573 39998 ft 487 kts 315°
2026-05-05 18:40 -8.56733 -64.20425 40001 ft 487 kts 315°
2026-05-05 18:41 -8.51956 -64.25246 40001 ft 487 kts 315°
2026-05-05 18:41 -8.47144 -64.30100 40000 ft 487 kts 315°
2026-05-05 18:42 -8.42364 -64.34920 40001 ft 487 kts 315°
2026-05-05 18:42 -8.37563 -64.39760 40001 ft 487 kts 315°
2026-05-05 18:43 -8.32766 -64.44594 40001 ft 487 kts 315°
2026-05-05 18:43 -8.27999 -64.49401 40000 ft 487 kts 315°
2026-05-05 18:44 -8.23196 -64.54233 40000 ft 487 kts 315°
2026-05-05 18:44 -8.18393 -64.59062 40000 ft 487 kts 315°
2026-05-05 18:45 -8.13579 -64.63904 40000 ft 487 kts 315°
2026-05-05 18:45 -8.08778 -64.68732 40000 ft 487 kts 315°
2026-05-05 18:46 -8.03979 -64.73555 40001 ft 487 kts 315°
2026-05-05 18:46 -7.99178 -64.78380 39999 ft 487 kts 315°
2026-05-05 18:47 -7.94375 -64.83204 40001 ft 487 kts 315°
2026-05-05 18:47 -7.89590 -64.88009 40001 ft 487 kts 315°
2026-05-05 18:48 -7.84782 -64.92835 40000 ft 487 kts 315°
2026-05-05 18:48 -7.79992 -64.97641 40001 ft 487 kts 315°
2026-05-05 18:49 -7.75181 -65.02467 40001 ft 487 kts 315°
2026-05-05 18:49 -7.70371 -65.07290 40000 ft 487 kts 315°
2026-05-05 18:50 -7.65579 -65.12094 39999 ft 487 kts 315°
2026-05-05 18:50 -7.60761 -65.16921 39997 ft 487 kts 315°
2026-05-05 18:51 -7.55980 -65.21711 40000 ft 487 kts 315°
2026-05-05 18:51 -7.51166 -65.26529 40000 ft 487 kts 315°
2026-05-05 18:52 -7.46358 -65.31343 40000 ft 487 kts 315°
2026-05-05 18:52 -7.41539 -65.36167 39998 ft 487 kts 315°
2026-05-05 18:53 -7.36733 -65.40976 40001 ft 487 kts 315°
2026-05-05 18:53 -7.31950 -65.45759 39999 ft 487 kts 315°
2026-05-05 18:54 -7.27119 -65.50590 40000 ft 487 kts 315°
2026-05-05 18:54 -7.22322 -65.55384 39997 ft 487 kts 315°
2026-05-05 18:55 -7.17515 -65.60187 40001 ft 487 kts 315°
2026-05-05 18:55 -7.12707 -65.64990 40001 ft 487 kts 315°
2026-05-05 18:56 -7.07888 -65.69802 39997 ft 487 kts 315°
2026-05-05 18:56 -7.03064 -65.74617 40001 ft 487 kts 315°
2026-05-05 18:57 -6.98250 -65.79422 40001 ft 487 kts 315°
2026-05-05 18:57 -6.93456 -65.84205 40000 ft 487 kts 315°
2026-05-05 18:58 -6.88628 -65.89020 40000 ft 487 kts 315°
2026-05-05 18:58 -6.83817 -65.93816 40000 ft 487 kts 315°
2026-05-05 18:59 -6.79022 -65.98595 40000 ft 487 kts 315°
2026-05-05 18:59 -6.74192 -66.03409 39998 ft 487 kts 315°
2026-05-05 19:00 -6.69370 -66.08211 40000 ft 487 kts 315°
2026-05-05 19:00 -6.64572 -66.12990 40000 ft 487 kts 315°
2026-05-05 19:01 -6.59742 -66.17798 39995 ft 487 kts 315°
2026-05-05 19:01 -6.54945 -66.22572 39999 ft 487 kts 315°
2026-05-05 19:02 -6.50906 -66.26592 40000 ft 487 kts 315°
2026-05-05 19:02 -6.46085 -66.31388 39998 ft 487 kts 315°
2026-05-05 19:03 -6.41282 -66.36162 39998 ft 487 kts 315°
2026-05-05 19:03 -6.36478 -66.40938 40001 ft 487 kts 315°
2026-05-05 19:04 -6.31635 -66.45753 40000 ft 487 kts 315°
2026-05-05 19:04 -6.26823 -66.50536 40001 ft 487 kts 315°
2026-05-05 19:05 -6.22000 -66.55327 40001 ft 487 kts 315°
2026-05-05 19:05 -6.17194 -66.60101 40001 ft 487 kts 315°
2026-05-05 19:06 -6.12376 -66.64884 40001 ft 487 kts 315°
2026-05-05 19:06 -6.07555 -66.69669 40001 ft 487 kts 315°
2026-05-05 19:07 -6.02721 -66.74466 39998 ft 487 kts 315°
2026-05-05 19:07 -5.97900 -66.79249 40001 ft 487 kts 315°
2026-05-05 19:08 -5.93103 -66.84007 39999 ft 487 kts 315°
2026-05-05 19:08 -5.88255 -66.88815 40000 ft 487 kts 315°
2026-05-05 19:09 -5.83424 -66.93604 40000 ft 487 kts 315°
2026-05-05 19:09 -5.78618 -66.98367 39998 ft 487 kts 315°
2026-05-05 19:10 -5.73813 -67.03128 39999 ft 487 kts 315°
2026-05-05 19:10 -5.68984 -67.07911 40000 ft 487 kts 315°
2026-05-05 19:11 -5.64149 -67.12700 40001 ft 487 kts 315°
2026-05-05 19:11 -5.59323 -67.17478 40001 ft 487 kts 315°
2026-05-05 19:12 -5.54487 -67.22260 40000 ft 487 kts 315°
2026-05-05 19:12 -5.49658 -67.27039 40001 ft 487 kts 315°
2026-05-05 19:13 -5.44829 -67.31814 40001 ft 487 kts 315°
2026-05-05 19:13 -5.39998 -67.36592 40000 ft 487 kts 315°
2026-05-05 19:14 -5.35201 -67.41333 40000 ft 487 kts 315°
2026-05-05 19:14 -5.30363 -67.46114 40001 ft 487 kts 315°
2026-05-05 19:15 -5.25539 -67.50890 40001 ft 487 kts 315°
2026-05-05 19:15 -5.20704 -67.55664 40001 ft 487 kts 315°
2026-05-05 19:16 -5.15876 -67.60430 40001 ft 487 kts 315°
2026-05-05 19:16 -5.11062 -67.65184 40000 ft 487 kts 315°
2026-05-05 19:17 -5.06212 -67.69974 40000 ft 487 kts 315°
2026-05-05 19:17 -5.01374 -67.74750 40001 ft 487 kts 315°
2026-05-05 19:18 -4.96548 -67.79513 39999 ft 487 kts 315°
2026-05-05 19:18 -4.91714 -67.84284 39998 ft 487 kts 315°
2026-05-05 19:19 -4.86889 -67.89045 40001 ft 487 kts 315°
2026-05-05 19:19 -4.82047 -67.93821 40000 ft 487 kts 315°
2026-05-05 19:20 -4.77227 -67.98574 39999 ft 487 kts 315°
2026-05-05 19:20 -4.72394 -68.03339 40000 ft 487 kts 315°
2026-05-05 19:21 -4.67560 -68.08105 40001 ft 487 kts 315°
2026-05-05 19:21 -4.62768 -68.12828 40001 ft 487 kts 315°
2026-05-05 19:22 -4.57934 -68.17591 40000 ft 487 kts 315°
2026-05-05 19:22 -4.53096 -68.22358 40000 ft 487 kts 315°
2026-05-05 19:23 -4.48257 -68.27124 40001 ft 487 kts 315°
2026-05-05 19:23 -4.43453 -68.31855 40001 ft 487 kts 315°
2026-05-05 19:24 -4.38612 -68.36622 40001 ft 487 kts 315°
2026-05-05 19:24 -4.33770 -68.41388 39998 ft 487 kts 315°
2026-05-05 19:25 -4.28931 -68.46151 40000 ft 487 kts 315°
2026-05-05 19:25 -4.24093 -68.50912 39999 ft 487 kts 315°
2026-05-05 19:26 -4.19252 -68.55675 39998 ft 487 kts 315°
2026-05-05 19:26 -4.14444 -68.60405 40001 ft 487 kts 315°
2026-05-05 19:27 -4.09607 -68.65162 40000 ft 487 kts 315°
2026-05-05 19:27 -4.04759 -68.69929 40001 ft 487 kts 315°
2026-05-05 19:28 -3.99917 -68.74693 40000 ft 487 kts 315°
2026-05-05 19:28 -3.95090 -68.79470 40001 ft 487 kts 315°
2026-05-05 19:29 -3.90293 -68.84225 39995 ft 487 kts 315°
2026-05-05 19:29 -3.85468 -68.89004 40000 ft 487 kts 315°
2026-05-05 19:30 -3.80650 -68.93775 40000 ft 487 kts 315°
2026-05-05 19:30 -3.75825 -68.98550 40000 ft 487 kts 315°
2026-05-05 19:31 -3.71030 -69.03294 40001 ft 487 kts 315°
2026-05-05 19:31 -3.66201 -69.08072 40000 ft 487 kts 315°
2026-05-05 19:32 -3.61378 -69.12843 40000 ft 487 kts 315°
2026-05-05 19:32 -3.56558 -69.17610 40000 ft 487 kts 315°
2026-05-05 19:33 -3.51732 -69.22383 39998 ft 487 kts 315°
2026-05-05 19:33 -3.46933 -69.27128 40001 ft 487 kts 315°
2026-05-05 19:34 -3.42106 -69.31900 39998 ft 487 kts 315°
2026-05-05 19:35 -3.34869 -69.39053 40001 ft 487 kts 315°
2026-05-05 19:35 -3.30048 -69.43817 40001 ft 487 kts 315°
2026-05-05 19:36 -3.25220 -69.48588 40000 ft 487 kts 315°
2026-05-05 19:36 -3.20422 -69.53329 39999 ft 487 kts 315°
2026-05-05 19:37 -3.15589 -69.58103 40000 ft 487 kts 315°
2026-05-05 19:37 -3.10754 -69.62879 40000 ft 487 kts 315°
2026-05-05 19:38 -3.05932 -69.67641 40001 ft 487 kts 315°
2026-05-05 19:38 -3.01132 -69.72381 40001 ft 487 kts 315°
2026-05-05 19:39 -2.96316 -69.77162 40000 ft 487 kts 315°
2026-05-05 19:39 -2.91506 -69.81948 40001 ft 487 kts 315°
2026-05-05 19:40 -2.86694 -69.86732 40000 ft 487 kts 315°
2026-05-05 19:40 -2.81886 -69.91511 40000 ft 487 kts 315°
2026-05-05 19:41 -2.77073 -69.96291 39996 ft 487 kts 315°
2026-05-05 19:41 -2.72151 -70.00938 39999 ft 487 kts 322°
2026-05-05 19:42 -2.66351 -70.04442 39998 ft 487 kts 333°
2026-05-05 19:42 -2.60283 -70.07383 40002 ft 488 kts 334°
2026-05-05 19:43 -2.54132 -70.10251 40002 ft 488 kts 335°
2026-05-05 19:43 -2.47988 -70.13128 39999 ft 488 kts 334°
2026-05-05 19:44 -2.41848 -70.16025 40002 ft 488 kts 334°
2026-05-05 19:44 -2.35710 -70.18932 40001 ft 488 kts 334°
2026-05-05 19:45 -2.29574 -70.21837 40000 ft 488 kts 334°
2026-05-05 19:45 -2.23440 -70.24741 40000 ft 488 kts 334°
2026-05-05 19:46 -2.17298 -70.27647 40001 ft 488 kts 334°
2026-05-05 19:46 -2.11159 -70.30552 39998 ft 488 kts 334°
2026-05-05 19:47 -2.05019 -70.33457 39998 ft 488 kts 334°
2026-05-05 19:47 -1.99919 -70.35870 39996 ft 488 kts 334°
2026-05-05 19:48 -1.92784 -70.39245 39997 ft 488 kts 334°
2026-05-05 19:48 -1.87641 -70.41678 39998 ft 488 kts 334°
2026-05-05 19:49 -1.81568 -70.44550 40001 ft 488 kts 334°
2026-05-05 19:49 -1.75429 -70.47454 40001 ft 488 kts 334°
2026-05-05 19:50 -1.69324 -70.50341 39999 ft 488 kts 334°
2026-05-05 19:50 -1.63180 -70.53246 40002 ft 488 kts 334°
2026-05-05 19:51 -1.57039 -70.56150 39999 ft 488 kts 334°
2026-05-05 19:51 -1.50909 -70.59048 40002 ft 488 kts 334°
2026-05-05 19:52 -1.44765 -70.61953 40000 ft 488 kts 334°
2026-05-05 19:52 -1.38632 -70.64852 40002 ft 488 kts 334°
2026-05-05 19:53 -1.32497 -70.67753 39998 ft 488 kts 334°
2026-05-05 19:53 -1.26391 -70.70639 39999 ft 488 kts 334°
2026-05-05 19:54 -1.20234 -70.73549 40002 ft 488 kts 334°
2026-05-05 19:54 -1.14093 -70.76452 39999 ft 488 kts 334°
2026-05-05 19:55 -1.07995 -70.79334 39998 ft 488 kts 334°
2026-05-05 19:55 -1.01850 -70.82238 39998 ft 488 kts 334°
2026-05-05 19:56 -0.95702 -70.85143 40002 ft 488 kts 334°
2026-05-05 19:56 -0.89564 -70.88044 40002 ft 488 kts 334°
2026-05-05 19:57 -0.83417 -70.90949 40002 ft 488 kts 334°
2026-05-05 19:57 -0.77318 -70.93831 39999 ft 488 kts 334°
2026-05-05 19:58 -0.71177 -70.96733 39999 ft 488 kts 334°
2026-05-05 19:58 -0.65029 -70.99638 40000 ft 488 kts 334°
2026-05-05 19:59 -0.58888 -71.02539 39998 ft 488 kts 334°
2026-05-05 19:59 -0.52733 -71.05448 40002 ft 488 kts 334°
2026-05-05 20:00 -0.46591 -71.08349 39997 ft 488 kts 334°
2026-05-05 20:00 -0.40486 -71.11234 40002 ft 488 kts 334°
2026-05-05 20:01 -0.34307 -71.14153 39998 ft 488 kts 334°
2026-05-05 20:01 -0.28205 -71.17036 40001 ft 488 kts 334°
2026-05-05 20:02 -0.22050 -71.19944 39999 ft 488 kts 334°
2026-05-05 20:02 -0.15911 -71.22845 39999 ft 488 kts 334°
2026-05-05 20:03 -0.09800 -71.25736 40000 ft 488 kts 334°
2026-05-05 20:03 -0.03655 -71.28639 39999 ft 488 kts 334°
2026-05-05 20:04 0.02490 -71.31541 39999 ft 488 kts 334°
2026-05-05 20:04 0.08639 -71.34446 40000 ft 488 kts 334°
2026-05-05 20:05 0.14788 -71.37352 39998 ft 488 kts 334°
2026-05-05 20:05 0.20931 -71.40255 39998 ft 488 kts 334°
2026-05-05 20:06 0.27040 -71.43142 40002 ft 488 kts 334°
2026-05-05 20:06 0.33188 -71.46048 40001 ft 488 kts 334°
2026-05-05 20:07 0.39336 -71.48953 40001 ft 488 kts 334°
2026-05-05 20:07 0.45483 -71.51859 39998 ft 488 kts 334°
2026-05-05 20:08 0.51621 -71.54760 40000 ft 488 kts 334°
2026-05-05 20:08 0.57773 -71.57667 39999 ft 488 kts 334°
2026-05-05 20:09 0.63916 -71.60571 40000 ft 488 kts 334°
2026-05-05 20:09 0.70025 -71.63458 40001 ft 488 kts 334°
2026-05-05 20:10 0.76174 -71.66365 40000 ft 489 kts 334°
2026-05-05 20:10 0.82320 -71.69270 40002 ft 489 kts 334°
2026-05-05 20:11 0.88475 -71.72179 40001 ft 489 kts 334°
2026-05-05 20:11 0.94621 -71.75085 40002 ft 489 kts 334°
2026-05-05 20:12 1.00771 -71.77992 40002 ft 489 kts 334°
2026-05-05 20:12 1.06877 -71.80879 39999 ft 489 kts 334°
2026-05-05 20:13 1.13030 -71.83788 40001 ft 489 kts 334°
2026-05-05 20:13 1.19171 -71.86692 40001 ft 489 kts 334°
2026-05-05 20:14 1.25322 -71.89600 40002 ft 489 kts 334°
2026-05-05 20:14 1.31467 -71.92506 39998 ft 489 kts 334°
2026-05-05 20:15 1.37513 -71.95622 40001 ft 488 kts 330°
2026-05-05 20:15 1.43392 -71.99037 40000 ft 488 kts 329°
2026-05-05 20:16 1.49213 -72.02482 39998 ft 489 kts 329°
2026-05-05 20:16 1.55067 -72.05952 40001 ft 489 kts 329°
2026-05-05 20:17 1.60923 -72.09414 39999 ft 489 kts 329°
2026-05-05 20:17 1.66781 -72.12874 40001 ft 489 kts 329°
2026-05-05 20:18 1.72598 -72.16308 40000 ft 489 kts 329°
2026-05-05 20:18 1.78446 -72.19762 39999 ft 489 kts 329°
2026-05-05 20:19 1.84301 -72.23220 40001 ft 488 kts 329°
2026-05-05 20:19 1.90158 -72.26679 40002 ft 488 kts 329°
2026-05-05 20:20 1.96005 -72.30134 40000 ft 488 kts 329°
2026-05-05 20:20 2.01857 -72.33591 40001 ft 488 kts 329°
2026-05-05 20:21 2.07713 -72.37050 40001 ft 488 kts 329°
2026-05-05 20:21 2.13559 -72.40505 40001 ft 488 kts 329°
2026-05-05 20:22 2.19412 -72.43963 39999 ft 488 kts 329°
2026-05-05 20:22 2.25259 -72.47419 39999 ft 488 kts 329°
2026-05-05 20:23 2.31070 -72.50853 40000 ft 488 kts 329°
2026-05-05 20:23 2.36922 -72.54312 40000 ft 488 kts 329°
2026-05-05 20:24 2.42778 -72.57774 40002 ft 488 kts 329°
2026-05-05 20:24 2.48633 -72.61236 40000 ft 488 kts 329°
2026-05-05 20:25 2.54487 -72.64689 39998 ft 488 kts 330°
2026-05-05 20:25 2.60530 -72.67731 39998 ft 488 kts 335°
2026-05-05 20:26 2.66714 -72.70573 39999 ft 488 kts 335°
2026-05-05 20:26 2.72877 -72.73462 40000 ft 488 kts 334°
2026-05-05 20:27 2.79011 -72.76407 40001 ft 488 kts 334°
2026-05-05 20:27 2.85128 -72.79368 39999 ft 488 kts 334°
2026-05-05 20:28 2.91209 -72.82313 39996 ft 489 kts 334°
2026-05-05 20:28 2.97335 -72.85277 40001 ft 489 kts 334°
2026-05-05 20:29 3.03456 -72.88238 40002 ft 489 kts 334°
2026-05-05 20:29 3.09574 -72.91197 40001 ft 489 kts 334°
2026-05-05 20:30 3.15701 -72.94161 40000 ft 489 kts 334°
2026-05-05 20:30 3.21821 -72.97121 39997 ft 489 kts 334°
2026-05-05 20:31 3.27945 -73.00085 40002 ft 488 kts 334°
2026-05-05 20:31 3.34065 -73.03047 40001 ft 488 kts 334°
2026-05-05 20:32 3.40194 -73.06013 40002 ft 489 kts 334°
2026-05-05 20:32 3.46276 -73.08957 40000 ft 489 kts 334°
2026-05-05 20:33 3.52404 -73.11924 40002 ft 489 kts 334°
2026-05-05 20:33 3.58528 -73.14890 39997 ft 489 kts 334°
2026-05-05 20:34 3.64652 -73.17855 40000 ft 489 kts 334°
2026-05-05 20:34 3.70781 -73.20825 40002 ft 489 kts 334°
2026-05-05 20:35 3.75870 -73.23290 40002 ft 488 kts 334°
2026-05-05 20:35 3.82991 -73.26740 40002 ft 489 kts 334°
2026-05-05 20:36 3.89110 -73.29705 40002 ft 489 kts 334°
2026-05-05 20:36 3.94246 -73.32195 40002 ft 489 kts 334°
2026-05-05 20:37 4.00330 -73.35144 39997 ft 489 kts 334°
2026-05-05 20:37 4.06123 -73.38658 40001 ft 488 kts 317°
2026-05-05 20:37 4.08353 -73.41204 40003 ft 487 kts 304°
2026-05-05 20:38 4.10196 -73.44053 40002 ft 487 kts 301°
2026-05-05 20:38 4.13720 -73.49872 40001 ft 488 kts 301°
2026-05-05 20:39 4.17231 -73.55696 40000 ft 489 kts 301°
2026-05-05 20:39 4.18958 -73.58558 39691 ft 483 kts 301°
2026-05-05 20:39 4.20722 -73.61481 38936 ft 485 kts 301°
2026-05-05 20:39 4.22450 -73.64340 38210 ft 485 kts 301°
2026-05-05 20:40 4.24408 -73.67096 37434 ft 486 kts 311°
2026-05-05 20:40 4.26796 -73.69508 36619 ft 488 kts 317°
2026-05-05 20:40 4.29297 -73.71820 35756 ft 491 kts 317°
2026-05-05 20:40 4.31827 -73.74139 34856 ft 495 kts 317°
2026-05-05 20:41 4.34374 -73.76478 33912 ft 498 kts 317°
2026-05-05 20:41 4.36939 -73.78840 32961 ft 501 kts 317°
2026-05-05 20:41 4.39516 -73.81218 31965 ft 505 kts 317°
2026-05-05 20:41 4.42108 -73.83611 31006 ft 507 kts 317°
2026-05-05 20:42 4.44692 -73.85999 30302 ft 504 kts 317°
2026-05-05 20:42 4.47252 -73.88365 29717 ft 497 kts 317°
2026-05-05 20:42 4.49741 -73.90666 29337 ft 487 kts 317°
2026-05-05 20:42 4.52197 -73.92937 29031 ft 475 kts 317°
2026-05-05 20:43 4.54602 -73.95161 28756 ft 464 kts 317°
2026-05-05 20:43 4.56943 -73.97327 28491 ft 453 kts 317°
2026-05-05 20:43 4.59194 -73.99477 28232 ft 442 kts 313°
2026-05-05 20:43 4.60933 -74.01959 27689 ft 429 kts 296°
2026-05-05 20:44 4.62002 -74.04721 26666 ft 423 kts 287°
2026-05-05 20:44 4.62858 -74.07529 25665 ft 418 kts 287°
2026-05-05 20:44 4.63701 -74.10295 24729 ft 410 kts 287°
2026-05-05 20:44 4.64547 -74.12999 23778 ft 404 kts 287°
2026-05-05 20:45 4.66236 -74.18274 21900 ft 390 kts 288°
2026-05-05 20:45 4.67060 -74.20816 21293 ft 375 kts 288°
2026-05-05 20:45 4.67837 -74.23208 21032 ft 355 kts 288°
2026-05-05 20:46 4.68598 -74.25547 20996 ft 352 kts 288°
2026-05-05 20:46 4.69358 -74.27880 20998 ft 351 kts 288°
2026-05-05 20:46 4.70117 -74.30204 20999 ft 350 kts 288°
2026-05-05 20:46 4.70858 -74.32473 20605 ft 336 kts 288°
2026-05-05 20:47 4.71583 -74.34703 19589 ft 339 kts 288°
2026-05-05 20:47 4.72319 -74.36964 18589 ft 342 kts 288°
2026-05-05 20:47 4.73055 -74.39222 17740 ft 339 kts 288°
2026-05-05 20:47 4.73974 -74.41381 16955 ft 333 kts 302°
2026-05-05 20:48 4.75428 -74.43120 16695 ft 325 kts 314°
2026-05-05 20:48 4.77026 -74.44720 16442 ft 325 kts 315°
2026-05-05 20:48 4.78636 -74.46303 16174 ft 323 kts 315°
2026-05-05 20:48 4.80238 -74.47879 15905 ft 321 kts 315°
2026-05-05 20:49 4.81830 -74.49447 15585 ft 317 kts 315°
2026-05-05 20:49 4.83417 -74.50961 14992 ft 314 kts 319°
2026-05-05 20:49 4.85298 -74.52074 14709 ft 316 kts 341°
2026-05-05 20:49 4.87454 -74.52349 14450 ft 314 kts
2026-05-05 20:50 4.89494 -74.51724 14226 ft 310 kts 29°
2026-05-05 20:50 4.91070 -74.50378 14023 ft 289 kts 52°
2026-05-05 20:50 4.91976 -74.48620 13790 ft 286 kts 74°
2026-05-05 20:50 4.92183 -74.46646 13581 ft 287 kts 95°
2026-05-05 20:51 4.91895 -74.44660 13351 ft 284 kts 101°
2026-05-05 20:51 4.91528 -74.42770 13128 ft 268 kts 102°
2026-05-05 20:51 4.90898 -74.41084 12878 ft 251 kts 121°
2026-05-05 20:51 4.89957 -74.39664 12662 ft 242 kts 126°
2026-05-05 20:52 4.88962 -74.38293 12492 ft 245 kts 126°
2026-05-05 20:52 4.87961 -74.36915 12288 ft 244 kts 126°
2026-05-05 20:52 4.86967 -74.35537 12069 ft 244 kts 126°
2026-05-05 20:52 4.85978 -74.34164 11873 ft 243 kts 126°
2026-05-05 20:53 4.84974 -74.32827 11673 ft 242 kts 130°
2026-05-05 20:53 4.83815 -74.31610 11483 ft 241 kts 138°
2026-05-05 20:53 4.82546 -74.30494 11127 ft 242 kts 140°
2026-05-05 20:53 4.81269 -74.29391 10745 ft 243 kts 139°
2026-05-05 20:54 4.80049 -74.28254 10547 ft 236 kts 136°
2026-05-05 20:54 4.78890 -74.27133 10381 ft 228 kts 137°
2026-05-05 20:54 4.77874 -74.25931 10119 ft 224 kts 126°
2026-05-05 20:54 4.76945 -74.24691 9849 ft 221 kts 129°
2026-05-05 20:55 4.76029 -74.23498 9694 ft 208 kts 127°
2026-05-05 20:55 4.75195 -74.22391 9567 ft 190 kts 127°
2026-05-05 20:55 4.74435 -74.21395 9388 ft 176 kts 128°
2026-05-05 20:55 4.73726 -74.20443 9150 ft 165 kts 126°
2026-05-05 20:56 4.73064 -74.19544 8938 ft 156 kts 127°
2026-05-05 20:56 4.72405 -74.18685 8762 ft 155 kts 128°
2026-05-05 20:56 4.71744 -74.17829 8605 ft 157 kts 127°
2026-05-05 20:56 4.71079 -74.16961 8408 ft 157 kts 128°
2026-05-05 20:57 4.70462 -74.16141 8368 ft 125 kts 127°
2026-05-05 20:57 4.70056 -74.15601 8367 ft 69 kts 127°
2026-05-05 20:57 4.69864 -74.15351 8369 ft 34 kts 127°
2026-05-05 20:57 4.69741 -74.15158 8368 ft 31 kts 108°
2026-05-05 20:58 4.69711 -74.15015 8367 ft 12 kts 98°
2026-05-05 20:58 4.69703 -74.14960 8367 ft 0 kts 98°
2026-05-05 21:00 4.69704 -74.14957 8367 ft 2 kts 86°
2026-05-05 21:00 4.69750 -74.14914 8368 ft 16 kts 39°
2026-05-05 21:00 4.69872 -74.14818 8368 ft 28 kts 37°
2026-05-05 21:00 4.70032 -74.14699 8368 ft 28 kts 41°
2026-05-05 21:01 4.70176 -74.14594 8368 ft 24 kts 34°
2026-05-05 21:01 4.70309 -74.14492 8368 ft 24 kts 34°
2026-05-05 21:01 4.70394 -74.14424 8368 ft 0 kts 57°
2026-05-05 21:02 4.70394 -74.14414 8368 ft 6 kts 86°
2026-05-05 21:02 4.70341 -74.14329 8368 ft 23 kts 127°
2026-05-05 21:02 4.70238 -74.14194 8368 ft 24 kts 127°
2026-05-05 21:02 4.70135 -74.14058 8368 ft 25 kts 127°
2026-05-05 21:03 4.70032 -74.13921 8368 ft 24 kts 127°
2026-05-05 21:03 4.69991 -74.13868 8368 ft 0 kts 127°
2026-05-05 21:03 4.69974 -74.13855 8368 ft 5 kts 156°
2026-05-05 21:03 4.69925 -74.13864 8368 ft 9 kts 196°
2026-05-05 21:04 4.69869 -74.13892 8368 ft 9 kts 216°
2026-05-05 21:04 4.69831 -74.13920 8369 ft 3 kts 217°
2026-05-05 21:04 4.69830 -74.13921 8369 ft 0 kts 217°